Theta_e
322 323 323 324 324 325 325 327 328 330 332 333 333 334 333 332 331 331 332 333 332 330 330 330 329 329 330 331 330 331 331 327 328 327 328 327 329 330 330 330 329 330 329 328 327 330 328 328 327 326 327 329 329 328 328 328 325 321 323 322 321 322 321 320 321 321 320 318 320 321 323 326 328 328 327 326 326 327 327 327 328 328 326 326 326
322 322 323 324 323 325 325 326 327 328 330 332 332 333 333 333 331 332 332 332 332 331 331 331 331 331 330 330 328 329 328 325 324 324 325 328 328 329 329 329 329 329 329 327 328 327 327 328 327 326 328 329 329 328 326 329 325 324 321 318 319 319 318 320 321 316 314 314 316 316 319 322 325 325 326 326 326 326 326 327 327 327 327 326 326
320 321 322 322 322 323 324 325 326 328 329 331 332 333 332 332 331 332 332 332 332 332 331 330 330 330 329 326 327 322 324 325 326 325 327 328 327 329 329 328 328 328 329 329 327 326 327 327 326 325 326 329 327 326 325 325 326 326 321 320 320 321 321 320 320 317 312 314 314 315 314 315 319 320 323 324 326 325 326 326 327 326 327 327 326
318 319 320 322 322 323 324 325 326 329 329 330 331 331 332 331 331 331 331 332 330 331 330 328 328 324 322 324 323 323 322 324 322 323 324 325 325 325 325 327 328 329 329 329 328 326 325 325 325 324 324 327 326 324 324 324 325 327 322 319 320 319 318 320 322 320 316 318 311 309 312 313 312 314 317 321 325 325 326 326 327 326 327 326 327
318 319 320 320 320 321 323 325 327 328 329 329 331 331 332 331 330 331 331 330 329 330 329 326 327 322 321 321 322 322 323 321 321 320 321 324 322 322 326 325 328 328 328 328 328 326 325 325 325 325 325 323 324 323 323 324 326 327 324 321 320 319 317 317 321 319 319 319 314 311 308 307 308 313 315 316 319 321 323 325 327 327 325 324 326
319 319 319 320 320 320 322 323 325 327 328 329 331 332 332 331 330 330 330 329 328 328 327 326 325 322 319 319 318 316 316 317 318 320 319 322 323 320 322 325 327 327 327 328 328 327 325 325 324 325 325 324 324 323 323 322 323 324 324 323 318 317 319 316 317 318 320 321 317 315 313 309 309 313 310 309 314 314 320 325 326 327 325 326 326
319 320 320 320 320 321 321 322 324 326 327 329 330 331 331 330 329 329 329 328 328 327 326 326 323 321 320 320 319 318 318 317 319 321 322 318 320 320 322 322 325 326 325 326 326 326 325 324 324 325 325 324 326 323 322 323 324 325 324 322 322 320 319 316 317 317 319 319 320 320 320 316 317 314 306 308 308 312 313 319 322 326 325 324 322
318 318 319 320 319 320 320 321 323 325 327 328 330 331 330 329 329 328 329 328 328 327 326 325 323 320 319 318 319 319 320 319 319 320 319 321 318 317 319 320 322 324 325 323 323 324 323 323 323 324 324 325 327 324 324 323 324 324 324 324 323 321 320 319 317 318 319 317 319 317 317 318 315 313 314 312 311 310 311 315 314 315 316 317 318
319 318 318 318 319 320 320 320 322 324 326 328 330 330 329 329 328 328 328 328 326 325 324 322 323 320 319 318 318 319 319 319 320 322 321 320 317 314 318 317 318 319 321 320 320 322 324 323 323 323 323 325 328 324 324 324 324 324 323 322 321 319 319 318 319 319 317 318 316 314 316 314 313 313 312 311 309 309 308 309 308 312 314 313 314
320 320 319 319 320 320 321 320 321 324 327 329 330 330 329 329 328 328 327 327 325 323 322 321 321 320 318 318 318 317 318 318 319 318 317 315 315 313 314 315 316 317 317 318 318 319 320 320 322 322 322 324 326 324 323 323 323 324 324 324 322 319 317 319 320 319 319 317 316 316 312 311 311 310 309 310 310 308 310 310 309 310 310 310 312
319 319 318 319 320 320 320 320 321 324 326 327 328 328 328 328 328 327 327 325 324 323 321 321 320 320 319 319 318 317 317 318 317 315 314 314 314 312 314 315 315 316 318 316 317 317 317 320 316 317 319 324 324 322 323 324 322 323 323 322 322 320 319 318 317 318 319 317 314 316 316 316 312 309 310 309 308 307 308 306 306 309 309 308 309
319 318 318 318 317 318 319 320 321 323 325 327 328 328 327 327 327 326 324 324 323 322 322 321 320 320 320 320 318 317 318 319 318 315 315 314 314 314 312 314 313 314 315 315 315 315 316 314 316 317 321 319 320 320 319 319 321 321 322 322 321 320 319 319 318 318 318 318 315 314 315 313 311 312 312 311 310 311 311 305 305 307 307 307 308
317 318 318 317 317 318 318 320 321 322 324 326 327 327 325 325 326 324 322 322 322 321 321 320 319 320 321 319 317 318 318 318 317 315 315 315 314 314 313 313 312 316 313 315 314 314 314 314 313 315 316 317 317 316 317 317 319 319 320 319 319 319 319 318 318 319 319 319 319 314 315 313 312 312 312 311 310 311 309 306 306 307 304 304 306
316 317 318 317 317 318 319 320 321 322 324 326 327 327 327 325 324 323 321 321 321 320 320 319 319 320 320 318 317 318 317 316 316 316 315 315 315 315 315 315 314 314 312 313 314 316 315 314 313 312 314 315 316 315 316 317 318 320 318 318 317 316 317 317 316 315 315 316 317 315 315 313 313 314 312 312 310 309 306 307 305 305 305 305 301
315 316 316 317 317 317 317 319 321 323 324 326 327 327 326 325 323 321 320 320 320 319 319 319 318 320 321 320 318 317 316 315 316 317 315 315 315 315 315 314 314 312 312 312 315 314 313 311 312 312 314 315 315 315 317 315 316 318 317 316 315 315 316 316 314 315 316 315 315 315 315 315 315 315 312 312 312 310 309 308 309 305 302 301 299
316 316 314 314 314 314 316 319 322 323 325 326 326 325 324 324 322 321 321 320 320 319 319 319 319 320 320 320 318 317 318 316 317 316 316 317 316 316 316 315 313 313 312 313 314 313 312 312 312 311 312 313 313 313 314 315 316 317 315 314 315 318 317 315 315 316 315 314 314 315 317 315 315 316 314 313 312 311 310 310 311 308 303 298 296
316 317 316 314 314 316 318 320 321 322 324 324 324 324 323 322 320 319 320 320 320 319 318 318 318 318 318 319 317 316 316 315 316 315 315 314 316 316 317 315 314 314 315 313 313 312 311 311 311 310 311 311 312 312 313 312 313 314 315 312 311 311 317 316 315 316 315 315 315 316 317 316 315 315 315 314 313 310 308 307 309 308 305 300 295
317 317 318 318 318 318 320 321 321 321 323 323 323 323 323 321 317 317 318 318 317 317 318 318 318 318 317 317 317 317 316 315 315 315 315 316 315 316 315 315 314 315 316 315 312 312 314 315 311 310 310 311 311 310 310 309 309 310 309 309 308 309 309 308 311 314 314 314 314 313 314 315 314 316 315 314 313 310 307 307 304 303 303 302 295
315 316 317 318 317 317 319 319 321 320 321 322 322 323 323 321 319 318 318 317 317 317 317 317 317 319 319 317 316 316 315 314 315 315 315 315 315 314 314 314 314 314 315 312 311 310 310 309 308 308 309 309 309 308 308 308 308 308 308 308 307 307 307 306 307 310 311 313 312 311 311 314 315 316 314 313 312 310 307 305 304 303 302 300 301
315 316 317 317 317 318 318 319 320 320 320 321 322 322 322 322 321 319 319 319 318 318 317 317 317 319 317 317 316 316 316 315 315 315 314 314 314 314 314 313 314 313 311 311 310 309 309 307 307 307 307 307 307 306 306 306 307 307 307 308 307 307 308 307 306 307 310 310 309 309 311 313 314 314 312 312 312 311 308 305 305 304 300 299 299
313 315 316 316 316 317 317 318 320 320 320 320 320 321 321 322 321 319 319 319 319 318 318 318 318 318 317 317 317 317 317 315 314 314 314 313 313 314 314 314 312 310 310 310 309 308 308 307 307 308 307 306 305 305 304 305 306 305 305 306 306 307 307 306 307 306 307 306 307 307 308 311 312 312 310 310 311 311 308 307 305 303 301 299 299
313 313 314 315 315 316 318 318 318 318 319 319 319 320 320 320 321 322 322 321 320 320 318 317 317 318 317 318 318 319 319 316 314 314 314 313 313 313 313 311 310 309 309 309 308 308 307 307 306 306 306 306 306 304 304 304 305 305 306 307 307 306 306 305 305 306 306 307 306 306 306 307 309 310 308 309 309 310 309 307 304 303 301 300 300
312 312 312 313 314 315 317 317 317 317 318 319 319 319 319 319 319 320 320 320 321 320 319 318 317 317 318 318 319 318 319 316 314 313 313 313 313 312 312 311 310 309 308 308 307 306 307 306 306 306 306 305 305 304 304 304 304 304 305 305 306 305 305 305 305 305 305 304 305 306 304 305 307 306 306 306 307 308 309 308 305 303 302 300 300
312 312 313 314 315 315 315 315 315 315 316 316 316 316 317 317 318 318 318 320 320 320 319 318 318 317 317 318 318 318 318 316 315 315 314 314 313 313 312 310 309 308 309 308 306 306 306 306 306 306 305 305 305 305 305 304 304 304 305 305 304 304 304 304 305 305 305 304 304 305 303 304 305 305 303 304 303 304 306 307 305 302 301 300 300
312 312 313 314 314 314 314 314 314 315 315 315 316 317 316 316 317 317 318 320 320 320 319 319 318 317 317 317 317 317 317 316 316 317 315 314 314 314 312 310 308 308 308 307 308 307 306 306 307 306 306 305 305 305 305 304 304 304 304 304 304 304 304 304 305 304 310 303 304 304 304 303 304 304 302 303 303 303 304 304 304 302 301 301 302
303 302 301 301 304 307 310 313 314 315 316 315 315 316 316 316 316 316 317 317 318 319 319 318 317 316 315 315 315 316 317 316 316 315 314 313 313 314 313 310 309 308 308 308 307 306 307 306 306 306 305 305 305 304 304 304 304 304 304 304 304 304 304 304 305 305 305 303 303 303 303 304 304 305 304 303 303 303 303 303 302 302 301 302 301
298 298 298 300 299 301 303 304 307 311 313 315 316 316 316 316 316 315 315 315 315 316 318 317 317 315 315 316 317 316 317 316 315 315 316 315 313 313 312 311 311 309 309 310 309 307 308 307 306 305 305 305 305 304 304 304 305 304 304 304 304 304 304 304 304 305 304 303 303 304 303 303 304 304 305 305 304 303 305 303 304 303 303 302 301
297 296 296 296 297 298 298 299 300 302 305 309 313 315 316 316 315 315 315 315 315 315 315 315 315 315 315 314 315 316 316 316 316 316 316 316 316 316 314 311 311 309 309 309 309 308 307 307 306 305 305 306 305 305 304 304 305 304 304 303 304 304 304 304 305 304 304 304 303 304 304 304 304 304 305 305 305 305 303 303 302 304 304 302 302
295 294 295 295 295 296 296 297 298 300 301 304 307 311 315 316 317 316 316 315 315 315 315 315 315 315 315 315 315 315 316 316 317 316 316 316 316 316 316 314 311 311 312 310 308 308 307 307 306 306 306 307 307 307 307 305 305 304 303 303 303 304 305 304 304 304 304 304 304 304 304 302 307 312 310 308 308 308 306 304 301 303 303 302 302
294 294 294 294 294 295 295 296 296 297 298 302 304 307 309 310 311 314 315 315 315 314 315 315 315 315 315 315 314 314 314 315 315 315 314 315 316 315 314 313 314 313 311 311 308 308 307 307 307 305 305 306 307 307 310 307 307 307 304 305 304 304 304 304 304 304 303 303 304 303 306 317 314 311 307 304 303 305 307 308 306 304 304 303 302
293 293 293 293 294 294 294 294 295 295 296 298 299 300 300 300 300 301 302 304 308 310 312 314 314 315 315 315 314 313 313 312 314 314 313 314 314 314 313 312 313 314 314 312 310 308 307 307 307 306 304 306 307 308 304 301 299 303 307 305 305 304 303 303 303 303 303 304 304 304 303 309 312 312 305 302 301 301 302 303 304 305 307 306 303
292 293 293 293 294 294 294 294 294 295 295 296 297 298 299 299 299 299 300 300 300 299 299 299 300 302 306 310 312 313 312 312 313 313 312 312 312 312 312 312 312 312 312 313 311 309 308 307 307 306 305 306 306 306 301 300 298 297 301 307 305 305 305 304 304 304 305 304 305 305 304 306 307 305 304 302 301 300 299 299 300 300 301 302 303
293 293 293 293 294 294 295 295 296 295 296 296 297 297 297 297 297 299 299 298 297 297 297 297 298 298 298 299 300 301 301 302 304 307 309 311 311 310 309 310 310 310 310 311 312 311 309 307 306 306 305 305 305 303 295 294 296 297 297 300 304 305 305 306 305 305 305 306 304 305 306 304 308 313 311 302 301 299 297 295 296 298 298 298 298
294 294 294 294 294 295 295 296 296 297 297 298 299 298 297 298 298 298 297 297 296 296 296 296 296 297 297 298 298 298 298 298 299 300 300 300 301 303 305 308 308 308 308 309 311 312 312 309 306 305 305 304 304 302 295 295 295 295 295 298 303 304 304 304 306 307 307 306 306 307 308 307 306 307 307 303 302 299 298 297 297 298 297 296 295
293 295 295 294 294 294 295 295 296 298 298 298 298 298 298 297 297 297 297 296 296 296 296 296 296 297 297 297 297 297 297 297 297 297 297 297 297 298 299 301 302 303 305 306 307 308 309 309 309 307 305 305 307 302 296 294 293 293 293 294 303 305 306 307 307 307 307 306 307 308 308 308 308 307 308 305 303 301 299 300 299 299 297 298 297
292 292 292 293 294 294 295 295 297 297 297 298 298 299 297 297 298 297 296 296 296 296 296 296 296 296 296 296 296 296 296 296 296 296 296 295 295 295 296 297 298 298 298 299 300 302 303 305 307 306 305 307 308 301 297 294 293 293 293 300 302 303 305 307 308 308 309 309 308 308 308 308 306 307 305 299 301 302 301 301 301 298 297 294 294
294 293 293 293 294 295 296 296 296 297 297 297 297 298 298 297 297 297 297 296 296 296 295 296 296 296 296 296 296 295 295 295 295 295 295 295 295 295 295 296 295 295 295 296 297 298 300 301 302 304 305 306 308 304 299 295 295 294 295 303 303 303 303 304 307 308 309 310 310 310 309 309 308 309 304 299 296 300 301 301 301 299 297 295 294
295 295 295 295 295 295 297 296 296 296 297 298 297 297 296 296 296 297 296 296 295 295 295 296 295 295 295 295 295 295 294 294 294 294 294 294 294 294 295 296 294 294 294 294 296 296 296 298 299 301 303 304 306 305 300 299 298 295 296 303 304 303 305 306 307 308 307 308 309 310 312 310 309 310 302 298 296 301 303 303 302 302 298 296 294
295 294 294 294 293 294 295 295 295 295 296 297 297 296 295 295 295 295 295 294 294 295 296 296 296 296 296 296 296 296 295 294 294 294 294 294 294 294 294 294 294 293 294 293 295 294 295 295 296 298 303 302 302 302 300 298 297 298 298 303 305 305 304 304 305 306 305 306 308 309 308 309 309 307 301 298 295 300 305 304 304 302 300 298 298
295 294 294 293 295 295 294 294 294 294 295 296 295 295 295 294 294 294 294 293 294 294 295 296 296 296 296 296 297 296 295 294 294 294 294 294 295 294 294 294 294 294 293 293 293 293 293 293 294 295 297 298 299 301 300 296 296 296 296 302 306 305 304 304 304 306 307 304 305 306 305 299 298 299 298 298 296 296 304 304 305 304 301 299 301
293 293 295 293 294 294 294 294 295 295 296 296 295 294 293 294 293 293 293 293 294 295 295 295 295 295 295 294 294 294 294 295 294 294 295 295 295 294 294 294 294 294 293 293 293 293 293 293 293 294 295 296 298 299 298 295 295 295 295 296 303 305 306 306 305 304 305 306 305 305 306 303 298 297 297 297 296 294 297 304 305 305 304 301 295
294 295 295 294 294 294 294 294 295 295 295 295 294 293 293 292 292 292 292 294 294 294 294 294 294 294 294 294 293 293 294 294 293 293 292 292 293 293 293 292 292 292 291 291 292 292 292 292 292 293 293 293 296 298 297 296 294 294 294 295 300 304 305 306 306 305 305 304 306 307 306 303 299 297 296 296 296 296 296 299 305 299 297 291 297
292 292 293 294 293 292 292 293 294 294 294 293 293 292 292 292 291 292 293 293 293 293 293 293 293 292 293 292 292 292 292 293 292 292 291 291 291 291 291 291 290 289 289 289 289 290 289 289 290 291 291 292 293 294 295 295 294 293 293 293 294 297 297 304 306 306 306 306 306 306 306 302 298 297 296 295 295 295 295 298 296 296 294 292 294
291 292 293 293 292 292 291 291 293 293 293 294 293 292 292 291 291 292 293 293 293 292 292 291 292 291 291 292 291 292 291 290 291 290 290 289 289 289 290 290 290 290 289 289 289 289 289 289 289 289 290 291 292 293 294 293 294 293 293 292 292 293 293 301 306 307 308 307 305 304 303 300 298 297 296 295 294 294 297 295 294 295 293 292 297
290 290 291 290 290 290 291 291 291 291 292 292 293 292 291 290 290 291 291 291 291 291 291 291 290 290 290 290 290 289 289 290 290 290 289 289 288 288 289 288 288 288 287 287 287 287 287 287 287 288 288 289 291 292 292 293 293 293 293 292 292 292 292 291 297 303 304 305 301 298 297 297 296 295 294 293 292 293 292 293 293 293 294 297 297
291 291 290 289 290 290 290 290 290 290 290 291 291 291 290 289 289 290 289 290 290 290 290 289 289 289 289 289 289 289 289 288 288 288 288 289 288 288 288 287 287 286 286 287 286 287 287 287 286 286 287 288 289 290 291 291 293 294 293 293 292 292 293 292 294 297 296 294 292 293 295 294 293 293 292 294 295 295 292 292 292 293 298 298 297
288 288 290 290 290 290 290 290 289 289 290 290 290 290 290 289 289 289 289 290 290 289 289 288 288 288 288 288 288 289 288 288 287 287 288 289 288 287 288 287 286 287 287 286 287 287 287 286 287 287 287 288 288 289 290 290 291 292 292 292 293 294 293 291 292 293 294 296 296 294 293 291 292 291 291 291 291 290 292 293 294 296 296 297 297
286 287 288 289 289 289 289 289 288 287 289 290 290 290 289 288 288 289 288 289 289 288 287 287 287 287 288 288 288 287 288 287 288 287 287 287 287 288 287 287 286 287 286 286 286 286 286 286 286 287 287 287 287 288 289 290 290 291 290 291 291 292 293 293 294 296 296 294 292 289 290 291 290 289 289 288 289 291 291 291 293 293 293 292 292
287 288 289 289 290 289 288 288 287 287 287 288 287 288 288 287 288 288 287 288 288 286 285 285 285 286 286 286 288 286 286 286 286 287 286 287 286 288 288 287 287 286 286 287 287 287 287 287 286 286 286 286 286 286 288 289 289 289 288 289 289 291 292 293 294 293 292 292 291 290 288 290 289 286 286 286 288 289 288 290 293 292 292 292 292
287 288 288 289 289 287 288 287 286 287 287 288 287 288 288 289 288 287 287 288 286 286 285 285 285 285 285 286 287 286 287 287 287 286 287 287 287 289 289 288 287 290 290 289 289 287 288 288 287 287 287 286 286 288 290 289 289 289 289 289 289 289 290 291 292 291 291 288 287 286 286 287 287 286 286 287 287 287 288 288 288 289 291 292 291
287 287 287 287 287 288 287 287 286 287 287 287 286 286 287 287 286 286 286 286 285 286 287 285 286 286 286 287 286 286 288 287 287 287 287 286 286 287 288 289 289 290 290 289 289 289 289 289 288 287 288 288 288 288 288 289 289 289 289 289 289 289 290 290 290 289 288 288 288 289 288 288 287 287 287 288 287 287 287 288 288 288 289 289 288
Wind_Speed
14 16 15 16 20 20 19 18 20 18 16 10 6 3 3 5 6 7 7 7 7 7 6 6 7 6 4 6 5 4 4 2 2 2 2 2 2 3 3 4 4 5 5 5 5 5 4 4 4 3 4 4 4 4 4 4 3 3 3 2 4 5 2 1 1 3 7 5 4 5 6 5 6 7 7 7 4 2 3 4 1 3 2 4 4
14 12 13 12 12 17 14 10 4 16 18 19 16 12 7 6 7 7 6 7 7 7 6 5 5 6 5 5 3 4 4 4 3 3 3 2 2 3 3 3 4 4 4 4 5 5 5 4 4 5 4 4 4 4 4 4 4 3 3 3 3 3 2 2 2 1 2 2 4 2 4 5 5 7 7 6 3 4 4 3 2 3 4 4 4
13 14 14 13 14 12 10 12 10 4 3 13 17 17 14 11 9 8 7 7 7 6 6 6 4 3 4 3 5 3 1 2 2 2 3 4 3 4 3 4 4 4 5 4 5 4 5 5 4 4 4 5 4 4 4 5 4 5 3 4 4 2 2 1 1 1 2 2 3 5 1 3 3 4 4 5 4 2 4 3 2 3 4 5 2
15 14 12 10 10 10 9 11 11 9 10 8 11 16 14 12 11 10 9 8 7 7 7 5 5 3 3 3 3 3 3 2 2 2 3 3 3 3 2 4 4 5 5 5 5 5 5 5 4 3 4 4 5 5 5 5 4 4 3 3 4 5 2 3 1 0 3 7 3 1 2 2 3 2 3 3 2 4 4 4 1 2 5 6 1
16 14 12 11 10 10 13 12 11 12 11 11 13 15 14 16 14 13 10 9 7 7 7 5 6 5 5 4 3 4 5 4 3 2 2 2 2 3 4 3 5 5 5 5 5 6 5 5 5 5 4 4 4 5 5 6 5 4 5 4 4 6 4 2 2 0 4 2 5 4 3 1 1 2 2 3 4 2 2 1 1 4 6 4 2
16 16 15 13 13 10 8 10 12 12 12 11 8 7 11 12 13 12 9 8 8 7 7 6 6 7 6 6 5 3 4 4 5 6 3 4 5 2 2 3 4 4 4 5 4 5 5 5 5 5 5 4 4 4 4 4 4 4 5 4 4 2 6 4 2 1 2 1 1 1 3 2 5 2 3 1 2 2 2 3 3 3 5 3 3
11 11 10 10 9 10 9 12 13 13 11 7 5 4 6 10 11 11 10 8 8 7 7 6 6 6 7 7 5 6 6 3 3 4 6 3 3 4 4 2 3 5 4 4 4 4 5 5 6 6 5 5 3 4 4 5 5 4 4 4 5 4 4 4 5 3 0 1 1 1 2 1 6 7 3 4 3 2 4 3 4 4 4 4 5
10 10 9 7 4 7 13 13 13 12 8 7 5 5 6 7 9 9 8 8 7 7 7 6 8 6 6 5 6 6 7 6 5 4 3 4 4 3 4 3 2 2 4 3 3 3 3 4 5 5 6 5 5 5 5 4 4 3 4 4 4 4 5 6 5 5 7 3 2 2 2 5 3 3 4 5 5 5 2 4 5 5 6 5 5
12 12 13 18 20 17 11 12 9 8 8 9 7 7 7 7 8 8 8 7 7 7 6 5 6 7 7 7 6 5 5 6 4 3 4 3 5 3 4 3 2 2 1 3 3 3 3 4 4 4 5 5 5 5 5 5 6 6 5 4 5 4 4 3 5 6 4 5 3 3 4 3 4 4 4 3 4 5 3 2 2 3 6 5 5
11 12 14 13 14 14 9 5 7 9 8 8 8 8 8 8 9 9 8 7 7 7 6 5 7 7 7 7 8 5 4 3 4 4 4 4 5 3 4 4 4 3 2 2 2 2 3 3 4 5 5 5 5 5 5 5 5 6 7 7 6 5 3 5 6 5 5 3 3 6 3 3 3 3 3 5 5 3 7 6 4 6 5 3 3
11 13 12 13 11 7 6 10 10 8 8 9 8 8 7 7 9 10 9 7 7 6 6 5 5 6 7 7 7 7 6 6 5 4 4 4 6 4 4 4 3 4 4 3 2 3 2 1 3 3 3 3 4 4 5 5 5 6 5 5 6 6 5 4 3 4 4 3 3 5 7 8 7 6 7 5 5 4 7 5 4 3 5 5 3
11 12 11 7 5 5 7 9 10 9 7 8 6 6 6 5 6 8 6 7 6 6 6 5 6 5 6 7 7 7 7 6 7 6 5 5 5 5 3 6 4 5 3 4 3 2 3 2 2 3 4 3 4 4 3 3 4 4 5 5 5 5 4 5 5 6 5 5 3 3 4 3 2 4 6 6 7 8 10 8 7 5 5 3 2
11 11 10 9 10 11 11 9 7 8 8 7 7 6 5 5 5 7 6 6 7 6 6 5 5 6 6 7 6 6 6 5 6 6 5 6 6 6 5 6 4 5 3 4 1 2 3 4 2 3 3 3 3 2 2 3 3 4 4 4 5 5 5 5 5 6 7 6 6 2 4 2 2 1 4 5 3 6 9 9 4 3 5 4 1
11 10 10 11 11 10 9 8 7 6 7 6 5 6 6 6 5 6 6 6 6 7 6 6 5 5 5 6 7 7 6 6 6 7 5 6 6 6 6 6 6 5 3 3 2 1 2 2 3 2 1 2 2 3 3 2 3 4 3 3 3 3 5 4 3 3 3 3 3 5 4 4 5 5 4 6 7 7 6 9 7 5 5 4 1
6 8 9 10 8 5 4 4 5 5 6 5 4 5 5 6 7 8 8 7 7 7 6 6 6 5 5 6 6 6 7 6 5 6 6 6 4 6 4 4 6 4 5 3 1 2 2 2 2 3 3 3 2 2 3 3 3 3 3 3 2 3 4 5 4 4 4 3 2 3 4 3 4 6 6 6 7 8 9 9 10 11 4 3 1
5 3 2 3 1 1 3 3 3 4 5 4 4 5 5 5 5 6 9 9 9 9 7 8 7 6 5 6 6 6 5 5 5 3 4 5 5 6 5 3 3 4 2 3 2 2 3 2 3 3 3 3 2 3 3 3 3 4 3 3 3 2 4 4 5 5 4 4 3 4 4 4 3 5 5 6 6 6 8 8 9 10 12 6 1
5 5 2 0 2 4 5 4 2 2 3 4 4 4 5 4 4 5 5 5 7 6 7 6 6 6 5 5 6 6 6 6 6 4 4 3 5 4 5 4 4 3 4 3 4 2 2 2 4 3 3 3 3 2 3 3 3 3 3 3 3 2 4 5 5 5 5 4 4 5 5 4 3 3 4 4 5 5 4 4 7 11 10 10 5
8 5 5 5 6 6 6 5 5 4 4 5 5 5 5 3 3 3 3 4 3 4 5 6 6 5 5 5 5 6 6 4 5 6 4 5 4 5 4 5 4 4 4 3 3 3 2 3 4 3 2 2 2 2 3 3 3 2 2 2 2 3 3 3 3 5 5 4 4 3 3 4 3 4 5 4 5 6 6 5 5 5 7 10 5
6 7 7 7 7 7 6 6 5 5 5 5 4 5 5 4 4 4 4 4 3 3 3 3 4 3 4 4 5 5 4 3 4 4 4 5 6 5 5 5 4 4 5 4 4 3 3 3 3 3 2 2 1 3 3 3 3 3 2 2 1 2 3 3 2 4 4 5 5 5 3 5 4 5 5 4 4 6 6 5 5 6 3 4 8
6 5 7 8 7 5 6 7 7 7 6 5 4 4 5 5 5 5 5 5 4 4 3 4 3 5 7 8 8 8 5 1 4 5 5 5 5 6 5 4 4 3 4 4 4 3 3 3 3 3 2 1 2 2 3 3 3 3 2 3 1 3 4 4 3 2 4 4 6 6 5 6 5 4 4 5 4 4 5 6 6 7 4 4 3
9 8 8 8 6 6 6 5 5 3 6 6 5 4 4 4 5 5 6 5 5 4 5 6 6 9 11 10 9 8 3 5 1 4 4 4 4 4 4 4 4 4 4 4 4 3 2 3 3 2 2 1 2 3 3 3 4 3 2 2 2 2 4 2 4 3 2 4 5 6 6 6 6 6 5 5 5 6 5 6 5 6 6 5 6
9 9 10 8 7 6 6 5 5 5 7 8 7 6 6 6 6 6 6 6 6 5 7 7 6 7 8 8 9 9 7 4 3 1 4 3 4 4 4 4 4 3 4 4 4 3 2 2 3 2 1 0 0 2 2 3 3 3 2 1 3 3 4 3 3 4 2 1 4 6 4 5 6 7 6 7 7 6 6 5 5 6 7 6 6
9 8 8 9 9 7 5 8 8 7 8 9 8 7 8 10 10 6 6 3 5 7 7 7 6 6 7 7 7 6 7 7 6 3 1 4 4 4 4 5 4 4 2 3 4 3 3 2 2 2 2 0 0 1 1 2 2 3 3 1 1 3 4 4 3 2 2 3 4 5 5 4 4 5 5 5 5 6 6 7 7 5 7 7 7
9 6 6 6 8 6 3 5 7 6 8 10 10 9 8 9 10 11 11 8 8 8 8 8 6 5 6 8 8 9 8 7 6 5 4 1 0 3 2 4 4 4 4 2 3 3 3 2 1 1 1 1 0 0 0 0 1 3 2 2 1 1 2 2 3 2 2 3 4 5 4 4 4 6 4 4 4 4 7 6 6 5 5 7 7
9 8 8 7 8 7 6 6 7 7 6 5 7 7 7 7 7 8 8 7 7 7 8 7 7 7 6 7 7 8 7 7 6 4 4 4 1 1 3 3 3 3 2 3 2 2 2 1 1 1 1 1 1 0 1 0 0 0 1 2 1 1 1 1 1 1 2 2 3 5 4 4 4 5 3 3 4 5 4 6 7 7 7 6 5
10 11 11 10 9 8 8 7 7 6 5 5 5 4 6 7 6 4 4 5 5 5 6 7 7 9 9 8 4 5 6 6 6 5 4 3 2 1 1 3 3 4 2 1 2 1 1 1 1 2 1 2 2 1 2 3 3 2 1 1 1 1 1 1 1 1 2 2 3 3 4 4 4 6 5 4 4 5 4 5 5 5 5 5 5
10 9 8 10 12 10 9 10 9 8 7 6 6 6 7 7 8 7 5 5 3 2 5 7 6 7 10 10 8 5 6 6 5 4 4 3 3 3 1 0 0 3 3 3 2 2 1 1 2 1 2 3 3 2 2 1 2 3 3 3 2 2 1 1 2 2 2 3 4 4 4 4 5 5 7 7 6 5 6 6 7 6 5 6 6
9 10 11 11 10 10 11 10 10 9 9 9 9 9 9 8 8 6 5 6 4 5 5 6 5 5 6 5 4 6 6 5 4 3 3 2 3 4 4 2 1 1 3 4 4 4 4 3 3 3 4 2 2 2 1 1 1 2 3 2 3 3 3 2 2 2 2 3 3 4 5 4 4 4 5 6 6 7 4 5 3 4 5 6 6
11 10 9 9 10 10 11 11 10 12 12 10 9 9 9 8 8 7 6 6 4 7 7 7 8 8 6 5 5 4 5 6 6 5 3 4 5 5 6 6 3 1 2 2 2 3 3 3 3 4 4 2 3 4 3 3 3 2 2 3 3 4 4 4 3 2 2 2 2 1 2 3 3 4 3 4 5 6 7 6 4 5 5 6 5
10 10 9 10 10 9 10 11 13 11 11 11 10 10 9 9 9 8 8 6 7 8 8 8 8 7 6 6 6 4 5 6 8 8 5 4 6 7 7 6 6 5 3 1 2 2 3 4 4 4 4 3 4 3 4 7 6 4 4 3 2 2 3 4 4 3 3 3 3 3 2 2 4 7 7 6 5 6 5 5 8 7 7 6 6
9 7 9 9 11 10 12 13 12 13 12 11 10 10 11 12 10 10 10 8 8 9 9 8 8 6 6 7 7 6 5 6 6 5 5 4 6 7 5 5 5 5 6 6 2 2 1 3 4 4 4 4 4 4 7 6 9 7 5 4 4 4 2 2 3 4 4 4 3 2 2 3 1 2 2 4 5 5 5 3 5 8 8 10 9
11 9 8 10 11 12 11 11 12 12 12 12 10 11 13 11 11 11 10 10 11 11 12 12 10 9 9 8 6 7 8 7 6 5 6 7 6 5 4 3 4 6 6 6 7 5 2 1 1 2 4 5 5 7 8 8 8 9 7 3 4 4 4 4 4 4 4 4 5 4 2 1 1 2 2 3 3 3 4 6 8 7 6 4 4
7 8 9 9 11 11 10 11 10 11 12 12 10 12 12 10 10 9 9 11 12 12 12 12 10 11 10 9 10 11 11 11 10 9 9 8 6 6 5 6 5 5 4 6 6 6 5 3 1 1 2 2 4 4 5 7 8 9 8 5 3 3 4 5 4 5 5 6 5 5 4 4 4 5 4 4 4 3 3 4 6 6 5 5 5
10 9 10 11 10 10 10 10 10 10 10 9 10 12 10 8 8 9 11 10 12 11 11 10 10 10 10 10 11 11 11 10 9 10 10 10 9 9 8 6 5 5 5 4 6 7 6 6 4 3 2 2 3 2 4 3 5 6 7 5 4 3 3 4 4 5 5 5 6 6 7 7 5 4 5 4 4 4 4 3 3 3 3 2 3
4 8 9 9 9 10 9 10 9 8 7 8 9 9 10 10 9 11 10 11 11 12 12 10 11 10 10 10 11 11 10 9 9 9 9 10 9 9 9 8 7 7 7 7 6 6 6 6 5 5 6 6 6 4 4 4 4 3 1 2 3 4 4 5 5 4 4 4 5 6 6 8 6 6 6 7 5 5 4 3 3 2 1 1 1
4 7 7 7 8 9 10 9 6 8 7 8 7 6 11 10 10 11 11 10 11 12 12 11 12 11 10 9 9 10 10 9 10 10 10 9 8 8 8 6 6 7 7 7 7 6 7 7 6 5 4 5 5 8 8 7 6 4 1 1 1 3 4 5 6 6 6 5 4 4 5 6 5 5 8 9 7 3 5 5 5 4 1 1 1
4 6 6 5 4 8 8 8 9 9 8 6 4 6 9 11 12 9 10 11 12 13 12 12 12 10 10 10 9 10 10 10 9 10 10 9 8 8 7 6 7 7 7 7 6 5 5 6 7 6 6 6 6 5 4 6 8 5 3 4 3 2 4 4 6 6 6 6 6 6 6 7 6 7 10 12 11 7 3 3 5 6 3 2 2
3 4 5 5 4 5 6 8 9 8 6 5 5 8 11 12 10 8 11 12 13 12 11 11 11 10 9 9 9 9 9 9 9 10 8 7 7 6 7 7 7 7 7 7 6 6 5 5 6 7 7 6 7 9 10 8 5 6 4 5 4 4 5 5 6 6 4 4 6 9 9 7 8 9 9 10 11 10 7 9 8 7 5 5 4
3 4 7 7 5 6 6 6 8 10 6 6 9 10 12 11 10 10 12 13 12 11 12 10 8 8 8 8 8 9 9 9 9 8 8 8 8 7 6 6 6 5 5 5 5 6 6 6 6 6 9 8 7 9 12 14 13 6 3 3 4 5 6 6 6 6 4 4 4 7 10 10 8 10 12 11 11 10 8 9 10 8 8 8 9
1 3 4 5 4 7 9 9 10 8 6 8 9 11 12 11 10 10 12 12 10 8 6 5 6 7 8 9 8 9 9 8 8 7 7 6 5 6 7 7 7 7 7 6 6 6 7 7 7 7 7 7 8 8 9 14 13 13 8 4 3 4 5 8 7 7 7 5 6 6 6 12 14 13 14 13 12 14 9 10 9 9 8 12 9
5 6 5 6 6 7 8 8 8 7 7 8 10 12 12 10 10 12 11 8 7 6 7 7 8 8 9 8 7 7 8 8 7 6 5 6 6 6 6 6 6 5 6 7 7 7 7 7 6 6 7 7 7 9 11 14 13 13 12 5 4 5 6 7 6 7 7 8 7 7 7 10 14 15 14 14 11 12 14 7 6 8 11 3 9
6 6 5 5 6 7 7 8 7 7 8 9 10 12 9 9 10 10 7 5 6 7 7 7 8 8 7 7 7 7 6 6 6 6 7 6 5 5 5 5 5 5 6 6 5 6 7 7 7 6 6 7 8 10 9 14 15 14 12 10 4 6 7 6 7 7 6 6 8 8 7 11 14 14 13 13 14 14 14 7 7 12 5 12 11
7 7 4 5 6 7 7 6 6 7 8 8 11 10 8 8 9 5 3 5 5 6 6 7 7 8 7 7 7 7 6 5 5 5 5 6 5 6 6 5 5 5 5 5 5 5 5 6 7 7 6 6 7 8 11 11 15 16 14 9 8 8 10 8 7 8 7 8 7 7 8 11 13 12 12 13 13 14 10 7 12 13 10 12 11
5 5 4 4 5 7 8 8 7 7 6 7 10 10 9 9 7 2 2 3 5 4 4 5 5 4 5 4 4 4 4 4 4 4 5 5 6 5 5 5 5 5 5 5 6 5 5 5 6 6 7 7 7 7 9 12 11 14 16 15 11 8 10 7 7 7 6 7 6 6 8 13 13 13 12 12 12 11 10 11 11 13 14 13 9
6 6 5 5 7 8 9 9 7 7 7 6 7 10 9 8 2 2 3 4 3 3 4 4 4 3 3 2 2 2 1 2 2 2 3 3 3 3 4 3 3 4 4 4 5 4 4 5 5 5 6 6 7 7 7 10 13 12 11 12 13 12 9 8 6 6 6 6 7 10 12 12 13 12 10 8 7 9 13 11 13 14 12 8 8
8 7 6 5 7 8 10 9 7 6 7 6 6 8 9 4 3 3 3 3 4 4 5 4 3 3 2 2 3 3 3 3 3 2 2 1 1 2 2 3 2 3 2 4 4 4 4 3 4 5 4 5 5 5 6 7 7 9 9 10 11 10 10 9 9 8 10 11 11 12 12 10 8 6 4 5 6 5 4 5 11 13 10 10 10
6 4 5 6 7 8 8 8 7 5 6 6 7 7 6 4 4 4 4 4 5 6 5 4 4 4 4 4 5 4 5 5 4 4 5 4 5 5 4 5 5 6 5 5 5 5 6 5 6 6 5 5 5 5 6 7 6 7 8 9 9 9 8 6 5 6 8 8 7 0 2 1 2 3 3 4 4 4 4 4 6 4 1 1 5
4 4 5 6 6 6 6 6 6 4 4 5 6 5 4 4 3 3 4 5 6 5 5 5 5 4 5 5 5 6 6 6 5 5 6 6 5 4 4 5 5 6 6 6 6 6 6 6 7 6 7 7 6 5 6 7 9 9 10 9 9 9 8 6 6 5 3 2 1 1 4 4 4 2 1 2 3 4 3 4 5 5 7 8 7
7 5 6 6 4 6 5 5 4 2 3 4 4 3 2 2 2 2 4 5 5 4 4 4 3 3 3 3 3 3 3 4 4 4 4 3 5 6 6 5 5 4 5 5 6 6 6 6 6 6 8 9 7 6 6 7 10 11 10 9 10 11 9 7 6 4 1 1 2 1 1 2 4 4 3 2 3 5 5 5 6 7 8 8 9
4 5 6 7 6 5 5 4 3 2 3 4 3 2 2 1 1 2 4 5 4 4 4 4 3 3 3 4 5 5 4 4 5 5 5 5 5 6 6 5 7 8 11 11 8 6 7 7 7 6 5 7 8 8 10 14 16 17 17 14 13 14 16 13 10 8 5 2 2 3 3 4 3 5 5 5 5 6 6 6 5 6 8 8 9
4 7 7 7 5 5 5 4 2 1 3 2 3 2 2 1 1 3 3 3 3 4 5 5 4 5 4 5 5 5 5 5 5 5 5 5 7 8 8 10 10 11 11 12 13 14 14 12 8 7 8 11 13 14 14 14 16 17 17 16 16 16 15 14 8 5 2 4 3 4 4 3 3 3 4 5 5 6 7 8 8 7 6 8 9
Wind_Direction
123 124 127 131 135 144 172 172 172 170 159 156 152 158 170 158 152 156 154 152 154 156 161 156 155 143 143 158 159 153 159 146 150 143 151 178 173 172 170 148 144 141 145 145 141 141 143 149 147 143 142 137 133 137 133 134 133 132 115 78 113 112 55 39 80 95 109 73 54 62 55 43 59 61 65 68 93 159 71 63 18 66 42 68 60
122 124 131 140 156 171 165 171 191 167 172 159 157 161 165 166 169 162 159 162 164 167 159 165 171 173 157 156 142 148 144 161 182 174 176 168 166 171 170 150 150 146 145 144 137 137 145 152 157 156 152 137 138 144 144 126 118 123 130 77 35 114 141 181 174 68 37 116 127 75 44 48 64 65 62 61 77 73 85 100 165 100 71 70 65
130 139 150 159 173 174 155 169 171 196 199 159 163 162 162 165 170 169 168 167 167 162 158 166 163 146 147 144 149 131 164 168 156 140 151 165 175 175 170 149 136 133 141 143 138 144 148 154 162 159 150 139 138 147 139 139 150 149 157 132 114 58 88 210 204 77 136 96 90 87 52 75 18 42 47 49 56 68 108 124 93 80 83 72 119
139 147 154 163 178 169 161 161 171 172 180 192 175 164 161 162 166 170 169 168 161 165 169 166 150 120 84 121 114 118 165 126 95 93 116 128 158 151 173 149 140 141 146 147 141 145 149 154 148 150 151 145 152 151 152 156 155 153 146 155 141 119 126 230 297 328 147 135 91 122 152 90 82 36 57 14 36 76 69 100 206 126 97 98 7
142 150 154 168 178 177 172 169 172 177 182 190 193 178 171 163 163 166 165 163 161 169 165 144 120 96 88 81 88 71 61 73 87 72 116 158 127 156 189 160 148 146 152 151 151 152 151 151 154 153 150 155 154 155 164 171 168 166 169 158 170 148 156 185 266 324 155 87 145 108 51 45 197 158 102 22 6 23 27 145 91 78 80 76 150
148 154 162 174 181 171 169 172 177 183 190 196 233 208 162 153 154 156 156 158 164 167 155 145 143 137 128 127 128 108 103 118 158 173 160 156 187 187 139 170 151 147 157 157 157 151 156 158 155 152 155 162 166 168 155 143 159 172 186 172 160 196 153 139 179 327 159 71 131 138 155 169 152 184 85 134 342 27 35 53 55 70 102 113 92
143 159 161 166 175 167 180 184 185 188 193 187 223 216 171 148 148 153 157 157 158 160 159 148 140 145 152 156 148 146 151 207 181 164 161 171 152 166 167 172 168 152 159 155 161 164 159 163 163 163 159 161 166 157 164 171 171 184 179 171 185 148 147 157 169 189 28 320 86 148 181 184 150 135 161 132 82 4 23 28 50 54 83 100 97
149 152 133 72 31 236 195 191 191 189 170 174 192 177 172 146 146 151 151 151 154 155 166 159 149 151 143 136 143 150 169 181 173 164 130 136 136 140 139 165 176 148 142 141 159 162 163 167 165 164 163 168 164 175 183 175 159 174 172 184 172 167 171 159 179 173 176 233 54 44 62 92 88 102 114 142 127 125 75 33 36 42 65 66 83
153 150 155 171 182 199 208 191 187 171 171 177 178 166 166 159 151 144 147 146 147 156 153 151 145 151 147 143 146 173 166 168 160 126 129 126 107 89 106 111 94 67 80 129 149 168 178 178 170 166 169 174 173 175 184 175 172 162 158 159 178 193 180 160 160 188 182 188 122 76 85 76 67 77 101 90 135 129 88 100 82 42 60 45 69
155 157 170 181 186 194 194 182 173 184 175 173 175 173 174 164 157 152 150 146 144 146 147 152 153 148 145 152 158 163 150 137 134 133 123 116 106 97 97 98 105 87 76 86 111 152 179 189 175 175 177 173 174 179 180 176 178 172 173 177 175 173 174 158 179 185 190 182 155 144 121 101 74 71 75 108 69 62 147 149 144 126 101 2 31
160 163 192 191 190 176 166 187 185 173 178 181 178 174 173 172 162 161 154 135 141 142 138 145 144 147 148 158 160 156 161 149 136 113 110 107 111 106 102 101 94 107 102 81 92 112 101 116 147 173 175 180 174 171 188 182 180 181 177 164 167 162 171 167 159 158 173 184 161 155 157 170 172 167 170 167 147 128 102 102 102 89 124 103 7
165 175 186 188 174 188 188 192 186 177 171 180 175 167 161 163 166 151 129 128 126 124 123 134 139 139 148 157 162 160 157 155 152 144 149 132 127 114 105 94 82 86 88 92 78 80 89 57 62 121 155 164 196 196 178 162 168 166 164 169 166 161 156 160 159 158 172 186 186 167 166 156 119 148 168 158 150 152 137 137 130 123 79 74 113
171 182 183 186 192 191 193 195 182 178 175 167 169 166 145 149 163 145 129 126 126 124 126 128 138 142 153 159 155 150 150 147 142 145 156 138 135 122 113 109 102 86 75 98 82 93 109 105 104 133 147 181 173 136 141 149 148 148 160 162 146 155 165 161 168 178 173 177 195 140 124 123 156 142 139 136 108 119 128 121 118 107 122 121 111
180 181 188 193 196 196 189 185 179 174 171 159 146 151 146 142 148 135 128 128 129 129 134 135 140 141 149 153 152 148 147 147 153 151 161 144 143 139 139 142 135 138 137 132 172 101 76 93 115 110 132 144 146 147 149 143 134 134 135 138 165 153 143 157 160 164 163 170 125 146 142 133 150 141 144 135 136 124 120 124 118 64 77 103 89
187 191 198 200 203 184 164 161 163 168 165 150 129 126 129 145 147 138 134 139 141 144 138 139 141 143 149 149 145 141 141 143 154 155 148 141 146 135 134 129 132 155 148 172 156 116 90 89 103 114 134 136 136 121 107 103 111 112 120 142 138 142 128 124 131 146 158 175 187 110 125 139 143 139 145 157 149 142 137 144 131 128 101 129 131
175 195 250 270 262 85 90 102 130 140 144 125 119 117 132 144 151 152 153 156 155 153 153 150 150 147 146 141 135 124 119 124 125 130 137 143 146 143 142 137 140 134 145 137 135 128 123 92 72 91 116 117 120 121 114 114 122 117 116 126 129 118 129 133 148 153 165 179 146 153 141 158 143 137 152 157 142 145 148 148 144 142 141 163 147
140 164 155 42 37 33 37 43 68 87 89 90 88 98 113 129 153 157 153 151 154 149 143 141 143 138 137 130 127 124 134 146 145 138 131 130 137 139 136 143 133 134 138 135 122 99 102 107 85 80 97 113 108 109 108 102 102 117 131 131 134 136 146 161 157 159 169 163 154 162 178 144 157 140 138 138 127 103 102 129 149 155 157 143 151
156 141 94 73 65 60 50 46 44 46 62 77 76 77 95 102 122 131 124 131 109 116 130 141 138 133 125 123 128 135 139 139 132 131 134 124 122 125 125 128 147 153 138 127 116 110 82 80 94 78 85 92 114 99 97 104 104 97 119 120 156 138 128 132 154 148 158 156 145 153 156 140 152 148 153 151 129 129 138 151 117 118 146 146 154
157 138 107 84 87 88 95 96 93 83 79 84 80 83 81 76 80 83 83 76 88 90 98 95 111 109 97 114 120 105 91 102 111 122 133 135 142 144 146 147 135 133 124 123 113 96 89 71 75 90 84 94 84 96 99 91 97 99 78 94 63 105 115 107 133 149 164 150 149 155 155 151 170 165 143 145 128 131 150 144 125 129 129 131 152
32 49 76 88 100 109 110 107 101 111 104 95 87 73 78 80 82 83 83 93 95 91 91 102 85 72 64 59 46 43 31 65 140 138 141 148 149 144 140 133 144 124 119 117 114 109 102 95 74 92 95 72 84 68 83 97 84 84 103 99 89 111 109 122 110 115 145 148 149 154 170 162 176 161 150 159 155 158 157 157 154 148 142 124 122
38 45 60 46 49 51 42 43 46 59 89 89 88 81 73 81 84 84 91 86 80 79 78 60 60 78 86 90 89 85 46 340 281 138 133 139 138 137 133 137 119 125 127 119 114 111 98 99 94 87 116 134 119 94 62 85 93 90 60 101 103 123 114 101 106 90 100 135 143 150 166 171 163 160 170 170 173 170 167 169 153 150 148 145 143
86 97 104 102 76 43 57 71 71 69 74 80 78 81 70 63 60 77 79 85 100 79 84 90 95 110 113 124 129 139 145 99 360 41 117 121 135 135 141 130 133 147 133 131 124 116 96 91 100 87 67 38 43 87 62 83 104 99 79 38 105 104 97 90 88 111 112 118 131 130 146 161 171 164 167 176 180 168 167 162 171 170 169 163 166
90 79 86 90 81 72 69 78 73 75 82 81 74 76 87 92 96 84 84 57 103 114 110 116 125 131 137 133 129 126 83 76 78 45 76 144 148 145 144 137 140 140 125 135 142 125 109 92 84 65 49 52 28 39 41 89 105 125 124 65 49 105 123 125 116 125 115 112 107 121 139 146 147 149 169 173 171 177 172 177 184 180 175 175 178
89 86 87 93 103 113 103 81 83 81 96 101 106 106 120 134 140 137 140 156 141 135 128 127 129 128 133 130 135 113 102 111 121 138 120 35 58 133 131 131 145 140 137 107 93 105 104 88 74 58 52 18 8 34 17 63 154 147 133 117 65 66 83 110 133 136 127 112 126 117 143 143 142 140 145 147 160 167 175 180 175 182 176 178 181
73 72 73 80 82 77 86 76 77 77 70 94 114 132 136 117 121 136 153 163 132 119 119 124 129 122 109 109 115 118 119 125 142 147 103 94 55 197 136 145 138 145 130 110 93 91 94 114 161 216 165 215 250 199 185 224 234 208 150 141 134 105 112 121 138 162 140 120 128 141 162 148 142 132 133 145 157 157 172 169 180 175 176 176 164
63 63 57 54 53 48 49 57 62 69 88 95 96 111 114 110 98 85 96 69 83 107 119 128 123 107 86 76 78 101 113 126 126 99 97 111 121 167 156 156 162 156 125 104 133 115 146 197 218 228 221 231 228 204 204 208 204 177 159 145 146 151 154 155 146 199 139 139 129 139 162 161 157 153 171 173 162 155 149 154 159 166 158 154 152
58 65 70 66 58 55 54 57 56 58 62 70 81 78 72 68 67 62 60 52 29 89 117 114 95 99 122 140 139 139 126 117 113 131 137 130 107 92 71 324 214 160 160 170 174 176 216 184 249 234 240 241 234 200 205 201 201 178 176 170 164 167 160 184 193 225 186 161 153 147 165 178 178 174 163 171 166 161 158 162 166 161 159 151 157
61 57 58 60 59 55 54 53 55 56 60 62 58 59 60 62 64 56 51 75 89 87 63 57 79 102 96 80 44 65 74 90 108 98 83 88 93 77 61 74 121 196 177 190 192 197 214 186 221 226 238 240 258 226 231 208 199 177 164 178 188 183 183 191 213 243 243 199 179 166 167 180 187 197 178 171 164 160 151 150 159 148 151 150 157
61 52 51 58 59 55 54 51 48 48 50 54 59 60 65 68 66 67 65 65 68 77 72 78 79 78 80 95 109 102 104 103 92 72 56 43 47 49 50 35 35 358 303 244 229 198 185 208 226 226 242 234 227 228 215 201 179 167 155 176 189 187 180 194 211 237 264 284 272 219 179 166 178 183 211 194 196 168 153 157 176 153 156 154 146
72 68 60 58 56 51 50 50 46 38 42 50 57 59 60 63 59 61 68 62 68 73 80 77 72 75 81 81 83 76 71 72 71 73 57 36 54 49 39 36 30 14 358 26 154 166 178 198 213 226 223 219 236 243 237 236 220 176 179 170 169 186 192 188 202 229 265 279 277 288 287 214 206 183 176 182 198 197 206 176 169 163 162 156 161
67 46 52 59 59 53 54 52 47 47 47 45 50 59 63 60 58 58 58 56 67 69 67 65 63 60 69 71 64 62 64 70 76 77 88 74 50 41 38 36 21 15 21 2 52 85 108 195 199 197 209 224 234 240 242 241 252 231 177 173 185 195 174 194 202 211 241 259 280 301 313 322 324 226 191 192 190 192 193 181 177 184 176 168 162
84 68 56 59 59 53 48 49 50 47 48 47 46 55 58 54 55 58 58 63 67 70 69 64 58 54 52 55 56 56 48 41 50 53 56 58 61 42 32 27 30 19 6 23 22 13 12 351 216 177 197 220 230 238 240 243 240 253 260 227 197 191 196 197 198 203 217 230 250 270 277 297 258 233 232 208 208 193 176 170 169 179 187 206 191
86 81 73 63 66 59 52 50 47 50 56 50 53 60 54 47 52 51 59 62 65 66 67 63 57 57 55 55 57 61 57 50 46 45 42 50 48 43 15 9 21 24 8 17 2 357 351 343 351 237 248 248 245 253 273 275 256 239 244 271 281 247 213 217 212 209 206 210 215 233 247 238 223 210 212 220 204 186 146 147 155 156 171 190 194
89 85 84 82 74 70 67 60 56 53 58 67 63 70 65 56 58 56 58 59 65 61 61 58 56 54 55 56 57 58 58 52 48 48 50 51 48 40 34 26 20 19 10 353 1 347 339 333 321 303 286 288 275 252 217 247 281 277 263 241 253 265 273 276 258 236 219 208 208 207 224 237 231 208 202 202 206 203 181 159 153 143 139 133 159
6 75 70 74 82 80 74 66 59 57 58 59 62 70 75 63 54 58 55 62 62 64 59 54 53 49 48 51 55 57 56 52 49 49 49 47 42 36 35 25 26 28 19 12 8 351 337 332 332 336 336 318 305 308 251 240 239 229 233 236 253 249 250 256 259 266 270 256 224 220 216 226 221 212 213 196 190 199 181 186 183 197 147 50 52
29 80 76 74 74 80 77 65 59 62 63 64 59 63 73 70 60 59 57 54 58 61 58 54 52 46 45 45 51 53 53 49 50 49 48 42 40 34 33 17 28 28 21 15 13 9 357 346 338 339 336 317 306 324 318 304 289 289 294 239 199 227 237 245 250 247 242 243 249 243 240 238 227 224 224 204 206 182 183 180 200 206 168 18 31
64 74 86 89 89 84 79 77 61 49 40 46 51 77 81 74 62 55 62 57 54 52 50 50 49 44 43 42 43 49 49 47 46 49 44 39 32 24 22 19 29 26 21 17 9 351 341 343 345 350 350 329 320 324 317 301 307 320 320 300 290 250 228 230 245 247 243 236 227 218 217 226 228 231 222 195 191 155 169 201 206 204 199 191 234
15 52 59 56 58 66 67 79 87 76 56 43 47 64 66 63 65 57 59 58 55 53 50 47 46 41 40 41 43 44 45 42 43 46 42 37 33 29 24 15 27 16 12 0 349 352 355 356 353 349 345 333 323 322 332 330 298 283 266 282 279 267 266 255 253 244 231 233 239 229 214 215 224 234 236 207 174 161 175 191 205 221 196 200 237
348 45 74 74 70 80 81 75 74 70 50 52 49 53 61 59 54 56 60 60 57 52 50 48 46 50 47 44 45 47 43 40 38 34 34 34 28 23 10 15 19 20 11 353 359 1 355 359 358 350 345 350 334 334 343 345 347 339 248 248 266 282 283 268 263 267 259 239 246 235 228 231 226 239 242 224 181 184 186 189 199 199 206 210 215
115 53 73 88 91 80 71 69 67 63 53 49 56 60 61 61 58 61 61 60 59 63 67 64 51 49 52 49 45 48 45 42 39 32 29 34 27 27 21 18 12 12 5 4 2 8 1 354 352 358 356 355 347 340 342 344 344 345 334 267 234 228 245 260 263 263 270 260 243 251 238 235 240 240 245 242 187 196 195 206 201 199 196 221 202
79 78 75 76 70 73 77 78 77 71 58 54 61 66 62 58 58 57 56 54 59 58 55 52 49 47 45 44 39 44 44 40 41 42 33 31 26 22 21 22 19 10 11 6 7 0 360 353 353 351 351 348 348 338 333 336 338 340 343 318 259 242 244 245 247 243 241 248 245 239 246 237 232 235 240 245 238 206 215 222 193 209 215 173 96
77 69 77 83 76 75 71 68 71 76 78 77 76 74 70 65 62 61 52 47 51 52 53 53 52 51 50 49 49 44 45 42 32 32 34 27 17 19 23 23 15 17 13 9 3 1 356 348 344 346 348 340 338 342 330 328 331 333 344 331 275 261 249 258 261 252 246 243 243 244 236 240 238 237 237 240 241 246 238 217 215 237 175 133 164
64 60 47 78 75 71 64 64 64 76 89 93 91 89 84 76 73 69 58 59 59 55 53 50 48 46 44 42 40 38 34 29 25 23 30 21 10 10 5 10 13 9 10 1 357 356 356 346 342 338 339 337 334 334 334 327 325 327 331 337 290 269 269 257 251 255 248 246 249 253 255 253 245 239 238 236 237 242 250 222 214 221 194 169 148
66 72 60 66 80 77 69 59 68 81 88 95 96 93 86 80 73 69 78 69 67 68 67 67 64 67 64 55 49 43 35 27 22 19 23 26 10 6 358 0 358 360 356 353 342 347 346 346 339 329 330 332 332 333 327 324 322 323 324 323 324 288 251 241 246 250 256 254 253 253 252 257 256 248 239 234 232 232 231 229 203 203 190 164 158
62 47 49 65 84 92 86 76 76 87 92 94 100 98 90 83 93 110 86 86 91 89 81 75 81 88 94 106 98 80 68 58 60 57 41 28 4 6 2 343 354 349 346 337 322 322 321 312 316 314 316 317 323 326 321 319 320 323 319 319 321 320 297 254 246 244 256 262 263 258 255 254 254 256 259 255 247 243 236 230 201 194 166 156 161
46 39 46 73 74 71 76 75 60 67 80 84 85 91 89 113 146 123 112 103 91 75 67 61 64 76 73 62 51 30 21 16 19 34 39 22 7 352 346 328 334 326 320 315 301 304 294 291 283 283 287 287 300 306 311 314 322 324 326 323 319 306 297 279 258 264 253 251 263 275 268 259 261 262 240 223 228 231 218 201 192 178 172 168 163
53 24 51 58 71 70 71 72 62 40 66 69 74 73 89 87 67 60 58 60 62 59 53 43 33 27 24 27 25 14 5 359 1 356 359 356 347 352 347 339 341 333 333 326 321 318 316 311 310 310 308 310 311 314 312 313 314 325 324 323 321 314 291 275 275 266 270 274 289 275 162 193 200 204 196 180 157 134 124 130 148 154 54 174 165
60 45 63 62 69 85 83 79 72 49 63 69 69 71 67 67 55 54 62 59 57 51 47 34 21 18 19 16 11 1 359 351 345 349 344 339 333 328 327 318 316 316 318 314 310 308 304 303 303 306 307 307 304 309 310 312 318 323 320 317 314 306 300 286 278 273 262 290 331 53 104 119 121 96 61 58 77 98 108 128 132 123 118 105 87
38 29 61 76 85 80 77 82 82 75 81 76 81 83 87 87 80 72 72 65 61 54 51 40 20 26 14 7 2 358 344 337 329 331 319 298 293 311 309 300 284 259 263 284 300 291 286 279 282 295 307 305 304 298 285 291 295 293 290 300 311 307 304 291 266 242 133 101 100 103 113 134 137 132 118 111 113 110 100 111 122 128 128 129 127
52 64 63 67 60 74 74 74 70 76 81 85 85 73 46 61 76 74 64 55 48 42 32 12 10 19 1 3 3 354 345 344 339 332 329 323 295 287 282 286 294 292 284 279 271 273 275 287 290 279 257 274 287 283 290 296 296 299 300 293 279 275 276 271 270 205 181 154 176 176 198 191 176 157 164 164 158 142 133 123 120 132 136 135 134
36 63 48 58 54 58 62 55 41 84 97 104 98 77 61 33 76 77 73 64 53 21 8 355 4 359 350 349 2 351 342 338 328 321 322 323 319 319 298 279 269 270 275 274 279 281 285 282 272 281 277 266 269 273 276 279 287 292 295 296 297 293 282 268 226 146 191 183 193 200 216 197 206 194 187 180 164 154 149 143 146 146 144 135 131